Location: Cheyres
(46.8153°N, 6.7877°E)
Time: 22:10:55
(UTC+00:00)

NANOSAT C BR1 - Pass Details

Date: 26 June 2022
Orbit: 584 x 599 km, 98.0° (Epoch: 13 August)

Event Time Altitude Azimuth Distance (km) Brightness Sun altitude
Rises 00:28:42 0° 32° (NNE) 2,844 ? -18.8°
Reaches altitude 10° 00:31:51 10° 57° (ENE) 1,939 ? -18.7°
Maximum altitude 00:34:06 14° 90° (E) 1,683 ? -18.6°
Drops below altitude 10° 00:36:21 10° 122° (ESE) 1,935 ? -18.5°
Enters shadow 00:36:40 - 126° (SE) 2,004 ? -18.5°
